STARLINK-35704, 66221

Orbit data source: Space-Track

STARLINK-35704, 66221 is a payload satellite owned by SpaceX/Seattle (US) in LEO that was launched on Tue, 28 Oct 2025 UTC via an FALCON 9 launch vehicle from the Air Force Western Test Range (AFWTR). Payload-class satellites include a variety of spacecraft equipped with specific instruments for various scientific and technological missions. These include communications satellites like Starlink; space stations such as the ISS; scientific satellites like the Hubble; Earth observation satellites from companies like Planet Labs, Umbra, and HawkEye 360; GPS; miniature CubeSats for education and research; and military/defense satellites.

Loading next visibility...
Identifier
66221, 2025-244R
Orbit
LEO
Country
Flag of USUS
Related business
Manufacturer
SpaceX/Seattle
Mission
Operational Commercial Communications
Bus & Motor
STARLINK V2MO, Unknown motor
Mass
575 kg wet, ~530 kg dry
Launch date (UTC)
2025-10-28 (8 months ago)
Launch vehicle
FALCON 9
Launch site
Air Force Western Test Range (AFWTR)
Object type
Payload
Rocket body
Debris
Shape & HBR
Box + 2 Pan, 17.7 m
Radar Cross Section
36.964 m², Large (>1 m²)

Expand to show TLE details & history
Last TLE update: 1 day ago

TLE from 1 day ago
0 STARLINK-35704
1 66221U 25244R   26170.87509218  .00013780  00000-0  47641-3 0  9994
2 66221  53.1584 115.3371 0001285  95.2106 264.9041 15.30206739 37300
Epoch: 2026-06-19T21:00Z
TLE epoch observation values (Epoch: 2026-06-19T21:00:07.964Z)
Latitude
-0.00005°
Longitude
-107.79392°
Altitude
476.173 km
Speed
7.629 km/s
True Right ascension
07h 41m 20s
True Declination
0° 00' 00"
Sunlit
Object was in daylight at epoch
Visualization orbit readout
Latitude
Unknown
Longitude
Unknown
Altitude
Unknown
Speed
Unknown
Apparent Right ascension
Unknown
Apparent Declination
Unknown
Sunlit
N/A
Visualization observer readout
Local Sidereal Time
08:33:43
Azimuth
Unknown
Elevation
Unknown
Doppler factor
Unknown
Orbital elements
Apogee altitude
476.332 km
Perigee altitude
474.571 km
Semi-major axis
6,853.589 km
Eccentricity
0.00013
Inclination
53.1584°
RAAN
115.3371°
Arg. of periapsis
95.2106°
True anomaly
264.88943°
Mean anomaly
264.9041°
Eccentric anomaly
264.89677°
Mean motion
3.82531 °/min
Orbital period
94.11 mins
BSTAR
0.00047641
Loading maneuver chart data...
Computing Atmospheric mass density...
Loading historical data...
Loading historical data...
Loading historical data...
Loading historical data...
Loading historical data...
Loading historical data...
Loading historical data...

Documentation

Showing up to 5 results
|